GEFSGL_prec_meanprecacc_024.txt.gz
Total_Precipitation_Accumulation
0.07 0.06 0.06 0.04 0.03 0.02 0.01 0.01 0.00 0.00 0.00 0.00 0.00 0.00 0.00 0.00 0.00 0.00 0.00 0.00 0.01 0.01 0.02 0.02 0.03 0.04 0.05 0.05 0.05 0.05 0.06 0.09 0.10 0.04 0.02 0.02 0.04 0.06 0.06 0.09 0.09 0.09 0.09
0.06 0.04 0.03 0.03 0.02 0.01 0.01 0.01 0.00 0.00 0.00 0.00 0.00 0.00 0.00 0.00 0.00 0.01 0.01 0.02 0.03 0.03 0.03 0.04 0.04 0.04 0.06 0.05 0.05 0.04 0.05 0.07 0.09 0.08 0.05 0.05 0.07 0.08 0.09 0.09 0.06 0.05 0.08
0.04 0.03 0.02 0.02 0.01 0.01 0.01 0.01 0.00 0.01 0.01 0.01 0.01 0.01 0.01 0.01 0.01 0.01 0.02 0.02 0.02 0.03 0.03 0.03 0.03 0.03 0.04 0.03 0.04 0.05 0.06 0.07 0.11 0.14 0.11 0.10 0.08 0.06 0.08 0.06 0.07 0.11 0.10
0.03 0.02 0.02 0.02 0.01 0.01 0.01 0.01 0.02 0.02 0.02 0.02 0.02 0.02 0.02 0.01 0.01 0.01 0.01 0.01 0.01 0.01 0.01 0.01 0.02 0.02 0.03 0.05 0.06 0.07 0.09 0.11 0.13 0.14 0.11 0.08 0.06 0.05 0.07 0.07 0.08 0.12 0.12
0.04 0.04 0.03 0.02 0.02 0.02 0.02 0.02 0.03 0.03 0.03 0.02 0.02 0.01 0.01 0.00 0.00 0.00 0.00 0.00 0.00 0.00 0.01 0.01 0.01 0.02 0.04 0.07 0.08 0.09 0.12 0.13 0.13 0.13 0.10 0.07 0.05 0.04 0.06 0.08 0.12 0.12 0.09
0.07 0.05 0.04 0.04 0.04 0.03 0.03 0.03 0.03 0.02 0.01 0.01 0.00 0.00 0.00 0.00 0.00 0.00 0.00 0.00 0.00 0.01 0.01 0.02 0.01 0.01 0.03 0.05 0.07 0.10 0.13 0.14 0.14 0.12 0.10 0.08 0.05 0.06 0.11 0.16 0.21 0.18 0.12
0.07 0.06 0.05 0.04 0.04 0.03 0.02 0.02 0.01 0.00 0.00 0.00 0.00 0.00 0.00 0.00 0.00 0.00 0.00 0.00 0.01 0.02 0.03 0.03 0.02 0.01 0.03 0.04 0.05 0.06 0.06 0.07 0.11 0.15 0.15 0.12 0.12 0.15 0.24 0.27 0.25 0.22 0.18
0.06 0.05 0.03 0.02 0.02 0.01 0.01 0.00 0.00 0.00 0.00 0.00 0.00 0.00 0.01 0.01 0.00 0.00 0.00 0.00 0.01 0.02 0.03 0.03 0.04 0.03 0.04 0.05 0.04 0.03 0.03 0.04 0.10 0.16 0.22 0.23 0.26 0.28 0.33 0.35 0.32 0.28 0.21
0.04 0.03 0.02 0.01 0.01 0.00 0.00 0.00 0.00 0.00 0.00 0.00 0.00 0.01 0.01 0.02 0.00 0.00 0.00 0.00 0.01 0.01 0.01 0.02 0.03 0.04 0.05 0.07 0.05 0.04 0.04 0.06 0.13 0.27 0.37 0.40 0.41 0.41 0.40 0.37 0.34 0.30 0.26
0.02 0.01 0.00 0.00 0.00 0.00 0.00 0.00 0.00 0.00 0.01 0.00 0.00 0.01 0.02 0.03 0.01 0.00 0.01 0.01 0.01 0.01 0.01 0.01 0.03 0.06 0.08 0.08 0.05 0.06 0.08 0.11 0.24 0.42 0.50 0.50 0.44 0.41 0.40 0.37 0.33 0.30 0.30
0.01 0.00 0.00 0.00 0.00 0.00 0.00 0.00 0.00 0.00 0.01 0.00 0.01 0.01 0.03 0.02 0.01 0.01 0.01 0.02 0.02 0.02 0.03 0.04 0.06 0.10 0.09 0.07 0.06 0.07 0.13 0.20 0.34 0.54 0.53 0.43 0.34 0.27 0.23 0.22 0.21 0.23 0.27
0.00 0.00 0.00 0.00 0.00 0.00 0.00 0.00 0.00 0.00 0.00 0.01 0.01 0.01 0.02 0.02 0.01 0.01 0.01 0.02 0.03 0.03 0.05 0.07 0.09 0.12 0.10 0.10 0.09 0.15 0.23 0.31 0.39 0.50 0.47 0.37 0.28 0.21 0.18 0.15 0.14 0.16 0.19
0.00 0.00 0.00 0.00 0.00 0.00 0.00 0.00 0.00 0.00 0.01 0.01 0.01 0.01 0.01 0.01 0.01 0.01 0.01 0.02 0.04 0.05 0.09 0.15 0.17 0.14 0.15 0.16 0.22 0.30 0.34 0.36 0.39 0.41 0.33 0.26 0.22 0.19 0.17 0.15 0.14 0.15 0.16
0.00 0.00 0.00 0.01 0.00 0.00 0.00 0.00 0.01 0.01 0.01 0.01 0.01 0.01 0.02 0.02 0.02 0.02 0.02 0.02 0.04 0.06 0.11 0.20 0.27 0.28 0.29 0.34 0.38 0.39 0.36 0.36 0.37 0.29 0.21 0.18 0.18 0.18 0.16 0.14 0.14 0.14 0.16
0.00 0.00 0.01 0.01 0.00 0.00 0.00 0.00 0.01 0.01 0.01 0.01 0.02 0.02 0.03 0.03 0.04 0.06 0.06 0.06 0.06 0.10 0.12 0.15 0.20 0.26 0.31 0.36 0.38 0.39 0.34 0.30 0.27 0.20 0.16 0.16 0.18 0.19 0.18 0.15 0.13 0.11 0.14
0.00 0.00 0.00 0.00 0.00 0.00 0.01 0.01 0.00 0.00 0.00 0.01 0.02 0.03 0.03 0.04 0.04 0.04 0.06 0.07 0.09 0.11 0.12 0.17 0.24 0.31 0.37 0.39 0.38 0.36 0.31 0.27 0.23 0.19 0.16 0.14 0.16 0.18 0.18 0.16 0.14 0.13 0.14
0.00 0.00 0.00 0.00 0.00 0.01 0.01 0.02 0.03 0.02 0.01 0.01 0.01 0.02 0.02 0.02 0.03 0.02 0.02 0.04 0.06 0.08 0.10 0.19 0.28 0.36 0.40 0.39 0.35 0.32 0.31 0.26 0.21 0.16 0.13 0.13 0.13 0.15 0.16 0.17 0.16 0.15 0.14
0.00 0.00 0.00 0.00 0.00 0.00 0.01 0.02 0.02 0.03 0.04 0.04 0.02 0.01 0.01 0.01 0.02 0.02 0.02 0.01 0.03 0.06 0.13 0.22 0.31 0.36 0.39 0.38 0.33 0.31 0.29 0.25 0.18 0.14 0.14 0.14 0.14 0.14 0.14 0.15 0.14 0.13 0.11
0.00 0.00 0.00 0.00 0.00 0.00 0.01 0.01 0.02 0.03 0.03 0.03 0.02 0.01 0.01 0.02 0.03 0.03 0.03 0.02 0.04 0.09 0.16 0.22 0.28 0.31 0.33 0.33 0.30 0.25 0.23 0.22 0.19 0.16 0.15 0.16 0.17 0.15 0.13 0.10 0.08 0.08 0.09
0.00 0.00 0.00 0.00 0.00 0.00 0.00 0.01 0.01 0.02 0.03 0.03 0.03 0.02 0.02 0.03 0.03 0.04 0.04 0.04 0.05 0.09 0.14 0.19 0.24 0.23 0.23 0.25 0.23 0.20 0.18 0.19 0.19 0.18 0.18 0.18 0.18 0.15 0.12 0.09 0.08 0.07 0.07
0.00 0.00 0.00 0.00 0.00 0.00 0.00 0.00 0.01 0.02 0.03 0.03 0.03 0.02 0.04 0.04 0.05 0.07 0.08 0.09 0.10 0.12 0.14 0.16 0.18 0.18 0.15 0.15 0.17 0.16 0.14 0.15 0.16 0.18 0.19 0.18 0.15 0.11 0.08 0.06 0.05 0.04 0.03
0.00 0.00 0.00 0.00 0.00 0.00 0.00 0.00 0.00 0.00 0.01 0.02 0.02 0.02 0.04 0.04 0.05 0.08 0.10 0.11 0.12 0.14 0.14 0.14 0.14 0.14 0.14 0.13 0.13 0.14 0.13 0.13 0.14 0.16 0.16 0.15 0.12 0.08 0.05 0.04 0.03 0.02 0.02
0.00 0.00 0.00 0.00 0.00 0.00 0.00 0.00 0.00 0.00 0.00 0.00 0.01 0.01 0.02 0.03 0.06 0.10 0.13 0.12 0.10 0.09 0.09 0.09 0.11 0.13 0.13 0.12 0.11 0.10 0.10 0.11 0.12 0.13 0.15 0.14 0.10 0.05 0.03 0.02 0.02 0.01 0.01
0.00 0.00 0.00 0.00 0.00 0.00 0.00 0.00 0.00 0.00 0.00 0.00 0.00 0.01 0.02 0.03 0.05 0.10 0.13 0.13 0.12 0.10 0.08 0.08 0.10 0.12 0.12 0.12 0.11 0.08 0.05 0.06 0.07 0.10 0.11 0.09 0.06 0.03 0.02 0.01 0.01 0.00 0.00
0.00 0.00 0.00 0.00 0.00 0.00 0.00 0.00 0.00 0.00 0.00 0.00 0.00 0.00 0.01 0.01 0.02 0.04 0.08 0.10 0.12 0.13 0.11 0.09 0.08 0.08 0.08 0.06 0.05 0.04 0.05 0.05 0.05 0.06 0.09 0.08 0.05 0.03 0.02 0.01 0.01 0.00 0.00
0.00 0.00 0.00 0.00 0.00 0.00 0.00 0.00 0.00 0.00 0.00 0.00 0.00 0.00 0.00 0.00 0.01 0.01 0.02 0.05 0.07 0.09 0.10 0.10 0.09 0.07 0.04 0.02 0.02 0.03 0.04 0.03 0.02 0.02 0.05 0.09 0.06 0.04 0.02 0.01 0.01 0.01 0.00

GEFSGL_prec_meanprecacc_030.txt.gz
Total_Precipitation_Accumulation
0.12 0.10 0.08 0.07 0.06 0.04 0.03 0.03 0.02 0.01 0.01 0.00 0.00 0.00 0.00 0.00 0.00 0.00 0.00 0.00 0.01 0.01 0.02 0.02 0.03 0.04 0.05 0.05 0.05 0.05 0.06 0.09 0.11 0.04 0.02 0.02 0.04 0.06 0.06 0.09 0.09 0.09 0.10
0.07 0.05 0.05 0.04 0.03 0.03 0.02 0.02 0.01 0.01 0.01 0.00 0.00 0.00 0.00 0.00 0.00 0.01 0.01 0.02 0.03 0.03 0.03 0.04 0.04 0.04 0.06 0.05 0.05 0.04 0.05 0.07 0.09 0.08 0.05 0.05 0.07 0.08 0.09 0.09 0.06 0.05 0.08
0.05 0.03 0.03 0.02 0.02 0.02 0.02 0.01 0.01 0.01 0.01 0.01 0.01 0.01 0.01 0.01 0.01 0.01 0.02 0.02 0.02 0.03 0.03 0.03 0.03 0.03 0.04 0.03 0.04 0.05 0.06 0.07 0.11 0.14 0.11 0.10 0.08 0.06 0.08 0.06 0.07 0.11 0.10
0.03 0.03 0.03 0.02 0.02 0.02 0.02 0.02 0.02 0.02 0.02 0.02 0.02 0.02 0.02 0.01 0.01 0.01 0.01 0.01 0.01 0.01 0.01 0.01 0.02 0.02 0.03 0.05 0.06 0.07 0.09 0.11 0.13 0.15 0.12 0.09 0.07 0.05 0.07 0.07 0.09 0.12 0.12
0.05 0.05 0.04 0.04 0.04 0.04 0.04 0.04 0.04 0.04 0.03 0.02 0.02 0.01 0.01 0.00 0.00 0.00 0.00 0.00 0.00 0.00 0.01 0.01 0.01 0.02 0.04 0.07 0.10 0.11 0.13 0.15 0.15 0.15 0.13 0.09 0.06 0.05 0.07 0.09 0.13 0.12 0.09
0.08 0.08 0.07 0.07 0.07 0.06 0.06 0.05 0.04 0.03 0.01 0.01 0.00 0.00 0.00 0.00 0.00 0.00 0.00 0.00 0.00 0.01 0.01 0.02 0.01 0.01 0.03 0.05 0.08 0.11 0.16 0.18 0.17 0.16 0.13 0.10 0.07 0.08 0.12 0.17 0.22 0.19 0.14
0.11 0.10 0.09 0.08 0.07 0.06 0.04 0.02 0.01 0.00 0.00 0.00 0.00 0.00 0.00 0.00 0.00 0.00 0.00 0.00 0.01 0.02 0.03 0.03 0.02 0.02 0.03 0.05 0.06 0.07 0.07 0.09 0.14 0.19 0.19 0.14 0.14 0.17 0.27 0.31 0.28 0.26 0.22
0.11 0.09 0.07 0.05 0.04 0.02 0.01 0.00 0.00 0.00 0.00 0.00 0.00 0.00 0.01 0.01 0.00 0.00 0.00 0.00 0.01 0.02 0.03 0.03 0.04 0.04 0.04 0.06 0.05 0.04 0.03 0.05 0.11 0.18 0.23 0.25 0.28 0.31 0.38 0.41 0.38 0.34 0.25
0.07 0.05 0.03 0.02 0.01 0.01 0.00 0.00 0.00 0.00 0.00 0.00 0.00 0.01 0.01 0.02 0.00 0.00 0.00 0.00 0.01 0.01 0.01 0.02 0.03 0.04 0.06 0.09 0.07 0.05 0.05 0.06 0.14 0.29 0.39 0.44 0.46 0.47 0.47 0.44 0.42 0.37 0.32
0.04 0.02 0.01 0.01 0.00 0.00 0.00 0.00 0.00 0.00 0.01 0.00 0.00 0.01 0.02 0.03 0.01 0.00 0.01 0.01 0.01 0.01 0.01 0.01 0.03 0.07 0.09 0.09 0.06 0.07 0.11 0.13 0.25 0.43 0.52 0.53 0.48 0.46 0.47 0.43 0.40 0.38 0.36
0.02 0.01 0.00 0.00 0.00 0.00 0.00 0.00 0.00 0.00 0.01 0.00 0.01 0.01 0.03 0.02 0.01 0.01 0.01 0.02 0.02 0.03 0.03 0.04 0.06 0.10 0.10 0.08 0.07 0.09 0.16 0.22 0.36 0.56 0.55 0.46 0.38 0.31 0.28 0.27 0.26 0.30 0.35
0.01 0.00 0.00 0.00 0.00 0.00 0.00 0.00 0.00 0.00 0.00 0.01 0.01 0.01 0.02 0.02 0.01 0.01 0.01 0.02 0.03 0.03 0.05 0.07 0.10 0.13 0.11 0.11 0.11 0.16 0.24 0.33 0.41 0.53 0.51 0.42 0.33 0.27 0.23 0.19 0.19 0.21 0.26
0.00 0.00 0.00 0.00 0.00 0.00 0.00 0.00 0.00 0.00 0.01 0.01 0.01 0.01 0.01 0.01 0.01 0.01 0.01 0.02 0.04 0.05 0.09 0.16 0.17 0.15 0.16 0.17 0.23 0.31 0.36 0.37 0.42 0.45 0.39 0.33 0.29 0.26 0.22 0.19 0.17 0.19 0.21
0.00 0.00 0.00 0.01 0.00 0.00 0.00 0.00 0.01 0.01 0.01 0.01 0.01 0.01 0.02 0.02 0.02 0.02 0.02 0.02 0.04 0.06 0.11 0.20 0.28 0.29 0.31 0.35 0.40 0.41 0.37 0.39 0.42 0.33 0.25 0.23 0.24 0.24 0.20 0.17 0.16 0.16 0.19
0.00 0.00 0.01 0.01 0.00 0.00 0.00 0.00 0.01 0.01 0.01 0.01 0.02 0.02 0.03 0.03 0.04 0.06 0.06 0.06 0.07 0.10 0.12 0.15 0.21 0.27 0.33 0.37 0.40 0.40 0.36 0.33 0.31 0.24 0.19 0.19 0.22 0.23 0.21 0.17 0.15 0.13 0.16
0.00 0.01 0.01 0.00 0.00 0.01 0.01 0.01 0.00 0.00 0.00 0.01 0.02 0.03 0.03 0.04 0.04 0.04 0.06 0.07 0.09 0.12 0.12 0.17 0.26 0.34 0.40 0.42 0.42 0.39 0.34 0.30 0.26 0.22 0.18 0.16 0.18 0.20 0.21 0.18 0.15 0.15 0.16
0.00 0.00 0.00 0.00 0.00 0.01 0.01 0.02 0.03 0.02 0.01 0.01 0.01 0.02 0.02 0.03 0.03 0.02 0.03 0.04 0.07 0.10 0.11 0.20 0.30 0.38 0.43 0.43 0.39 0.36 0.34 0.29 0.23 0.18 0.15 0.14 0.14 0.16 0.18 0.19 0.18 0.17 0.16
0.00 0.00 0.00 0.00 0.00 0.00 0.01 0.02 0.02 0.03 0.04 0.04 0.02 0.01 0.01 0.02 0.02 0.02 0.02 0.02 0.03 0.07 0.14 0.24 0.33 0.39 0.41 0.41 0.37 0.34 0.32 0.27 0.20 0.16 0.15 0.15 0.15 0.14 0.15 0.16 0.16 0.15 0.14
0.00 0.00 0.00 0.00 0.00 0.00 0.01 0.01 0.02 0.03 0.03 0.03 0.02 0.01 0.02 0.03 0.04 0.05 0.05 0.03 0.05 0.11 0.17 0.23 0.30 0.33 0.36 0.35 0.32 0.28 0.25 0.23 0.19 0.17 0.16 0.17 0.17 0.16 0.13 0.11 0.09 0.10 0.11
0.00 0.00 0.00 0.00 0.00 0.00 0.00 0.01 0.01 0.02 0.03 0.03 0.03 0.02 0.03 0.04 0.04 0.06 0.05 0.05 0.06 0.10 0.16 0.22 0.26 0.25 0.26 0.27 0.25 0.21 0.19 0.20 0.19 0.18 0.18 0.19 0.18 0.15 0.12 0.09 0.08 0.08 0.08
0.00 0.00 0.00 0.00 0.00 0.00 0.00 0.00 0.01 0.02 0.03 0.03 0.03 0.03 0.06 0.06 0.07 0.08 0.09 0.10 0.12 0.14 0.16 0.18 0.19 0.19 0.17 0.17 0.18 0.16 0.15 0.15 0.16 0.18 0.19 0.18 0.15 0.11 0.08 0.06 0.05 0.04 0.04
0.00 0.00 0.00 0.00 0.00 0.00 0.00 0.00 0.00 0.00 0.01 0.02 0.02 0.03 0.06 0.05 0.07 0.10 0.12 0.12 0.13 0.16 0.17 0.17 0.16 0.15 0.15 0.15 0.14 0.14 0.13 0.13 0.14 0.16 0.16 0.15 0.12 0.08 0.05 0.04 0.03 0.02 0.02
0.00 0.00 0.00 0.00 0.00 0.00 0.00 0.00 0.00 0.00 0.00 0.01 0.01 0.02 0.03 0.04 0.07 0.12 0.15 0.14 0.11 0.11 0.11 0.12 0.13 0.14 0.13 0.12 0.12 0.10 0.10 0.11 0.12 0.13 0.15 0.14 0.10 0.05 0.03 0.02 0.02 0.01 0.01
0.00 0.00 0.00 0.00 0.00 0.00 0.00 0.00 0.00 0.00 0.00 0.00 0.00 0.01 0.02 0.03 0.06 0.12 0.15 0.15 0.13 0.12 0.11 0.11 0.12 0.13 0.13 0.12 0.11 0.08 0.05 0.06 0.07 0.10 0.11 0.09 0.06 0.03 0.02 0.01 0.01 0.00 0.00
0.00 0.00 0.00 0.00 0.00 0.00 0.00 0.00 0.00 0.00 0.00 0.00 0.00 0.00 0.01 0.01 0.03 0.06 0.09 0.12 0.13 0.14 0.13 0.10 0.09 0.09 0.08 0.07 0.05 0.04 0.05 0.05 0.05 0.06 0.09 0.08 0.05 0.03 0.02 0.01 0.01 0.00 0.00
0.00 0.00 0.00 0.00 0.00 0.00 0.00 0.00 0.00 0.00 0.00 0.00 0.00 0.00 0.00 0.00 0.01 0.02 0.03 0.05 0.08 0.10 0.11 0.10 0.09 0.07 0.04 0.02 0.02 0.03 0.04 0.03 0.02 0.02 0.05 0.09 0.06 0.04 0.02 0.01 0.01 0.01 0.00

GEFSGL_prec_meanprecacc_036.txt.gz
Total_Precipitation_Accumulation
0.12 0.10 0.09 0.08 0.06 0.05 0.04 0.03 0.02 0.02 0.01 0.01 0.00 0.00 0.00 0.00 0.00 0.00 0.00 0.00 0.01 0.01 0.02 0.02 0.03 0.04 0.05 0.05 0.05 0.05 0.06 0.09 0.11 0.05 0.02 0.02 0.04 0.06 0.07 0.10 0.09 0.10 0.10
0.07 0.05 0.05 0.04 0.03 0.03 0.02 0.02 0.01 0.01 0.01 0.00 0.00 0.00 0.00 0.00 0.01 0.01 0.01 0.02 0.03 0.03 0.03 0.04 0.04 0.04 0.06 0.05 0.05 0.05 0.05 0.07 0.10 0.09 0.06 0.05 0.07 0.09 0.11 0.11 0.07 0.06 0.09
0.05 0.03 0.03 0.02 0.02 0.02 0.02 0.01 0.01 0.01 0.01 0.01 0.01 0.01 0.01 0.01 0.01 0.01 0.02 0.02 0.02 0.03 0.03 0.03 0.03 0.04 0.04 0.04 0.05 0.06 0.07 0.08 0.13 0.16 0.13 0.11 0.09 0.08 0.10 0.09 0.09 0.13 0.11
0.03 0.03 0.03 0.03 0.03 0.03 0.03 0.02 0.02 0.02 0.02 0.02 0.02 0.02 0.02 0.01 0.01 0.01 0.01 0.01 0.01 0.01 0.01 0.02 0.02 0.02 0.03 0.06 0.07 0.09 0.12 0.14 0.16 0.18 0.15 0.11 0.09 0.08 0.11 0.10 0.11 0.13 0.13
0.05 0.05 0.05 0.05 0.05 0.05 0.05 0.05 0.04 0.04 0.03 0.03 0.02 0.01 0.01 0.00 0.00 0.00 0.00 0.00 0.00 0.00 0.01 0.01 0.01 0.02 0.04 0.09 0.11 0.14 0.18 0.20 0.20 0.20 0.17 0.13 0.09 0.08 0.10 0.12 0.15 0.14 0.10
0.09 0.09 0.09 0.09 0.09 0.08 0.07 0.06 0.05 0.03 0.02 0.01 0.00 0.00 0.00 0.00 0.00 0.00 0.00 0.00 0.00 0.01 0.02 0.02 0.01 0.01 0.03 0.06 0.09 0.13 0.19 0.23 0.22 0.22 0.19 0.16 0.11 0.12 0.16 0.20 0.25 0.22 0.16
0.12 0.12 0.11 0.10 0.09 0.07 0.05 0.03 0.01 0.01 0.00 0.00 0.00 0.00 0.00 0.00 0.00 0.00 0.00 0.00 0.01 0.02 0.03 0.04 0.03 0.02 0.04 0.07 0.07 0.08 0.09 0.10 0.17 0.24 0.25 0.20 0.19 0.22 0.32 0.36 0.32 0.30 0.25
0.12 0.11 0.09 0.07 0.05 0.03 0.01 0.01 0.00 0.00 0.00 0.00 0.01 0.00 0.01 0.01 0.00 0.00 0.00 0.00 0.01 0.02 0.03 0.04 0.05 0.05 0.06 0.07 0.06 0.05 0.04 0.07 0.13 0.21 0.28 0.30 0.32 0.35 0.43 0.46 0.43 0.38 0.29
0.10 0.07 0.05 0.03 0.02 0.01 0.00 0.00 0.00 0.00 0.00 0.01 0.00 0.01 0.01 0.02 0.00 0.00 0.00 0.01 0.01 0.01 0.02 0.02 0.04 0.06 0.07 0.09 0.07 0.07 0.07 0.08 0.15 0.30 0.41 0.47 0.49 0.51 0.51 0.49 0.47 0.42 0.35
0.07 0.04 0.02 0.01 0.01 0.00 0.00 0.00 0.00 0.00 0.01 0.00 0.00 0.01 0.02 0.04 0.01 0.00 0.01 0.01 0.02 0.01 0.01 0.02 0.04 0.07 0.09 0.09 0.07 0.09 0.13 0.15 0.27 0.46 0.55 0.57 0.52 0.51 0.51 0.49 0.45 0.43 0.40
0.03 0.02 0.01 0.00 0.00 0.00 0.00 0.00 0.01 0.01 0.01 0.01 0.01 0.02 0.03 0.03 0.01 0.01 0.01 0.02 0.03 0.03 0.03 0.04 0.07 0.10 0.10 0.08 0.08 0.11 0.18 0.24 0.39 0.61 0.60 0.51 0.42 0.36 0.33 0.31 0.31 0.35 0.41
0.03 0.02 0.01 0.01 0.00 0.00 0.01 0.01 0.01 0.01 0.01 0.01 0.02 0.02 0.02 0.02 0.02 0.01 0.01 0.02 0.03 0.04 0.06 0.08 0.10 0.13 0.11 0.11 0.12 0.18 0.26 0.35 0.46 0.59 0.56 0.47 0.38 0.32 0.27 0.24 0.23 0.26 0.31
0.02 0.02 0.01 0.01 0.01 0.00 0.01 0.01 0.01 0.01 0.01 0.01 0.02 0.02 0.02 0.02 0.02 0.01 0.01 0.02 0.04 0.05 0.10 0.16 0.17 0.16 0.16 0.19 0.25 0.33 0.38 0.42 0.48 0.51 0.44 0.38 0.34 0.31 0.26 0.23 0.21 0.22 0.25
0.02 0.02 0.02 0.02 0.01 0.01 0.01 0.01 0.01 0.02 0.02 0.02 0.02 0.02 0.03 0.02 0.03 0.03 0.02 0.03 0.04 0.07 0.11 0.20 0.29 0.29 0.32 0.37 0.42 0.45 0.42 0.45 0.47 0.40 0.31 0.28 0.28 0.28 0.24 0.20 0.19 0.19 0.21
0.02 0.02 0.02 0.02 0.01 0.01 0.01 0.01 0.01 0.01 0.01 0.02 0.02 0.03 0.04 0.04 0.04 0.06 0.07 0.06 0.07 0.10 0.12 0.16 0.22 0.29 0.34 0.39 0.42 0.43 0.40 0.38 0.37 0.30 0.25 0.23 0.25 0.26 0.24 0.20 0.18 0.15 0.18
0.02 0.01 0.01 0.01 0.01 0.01 0.01 0.02 0.01 0.00 0.00 0.01 0.02 0.03 0.03 0.04 0.04 0.04 0.06 0.08 0.10 0.12 0.13 0.19 0.27 0.35 0.41 0.44 0.43 0.41 0.37 0.33 0.30 0.27 0.23 0.19 0.21 0.24 0.24 0.20 0.18 0.17 0.19
0.01 0.01 0.01 0.00 0.00 0.01 0.02 0.03 0.04 0.03 0.01 0.01 0.01 0.02 0.02 0.03 0.03 0.03 0.03 0.05 0.07 0.11 0.12 0.21 0.32 0.40 0.44 0.44 0.40 0.37 0.36 0.32 0.26 0.22 0.19 0.17 0.17 0.19 0.20 0.21 0.20 0.20 0.19
0.01 0.00 0.00 0.00 0.00 0.01 0.01 0.02 0.03 0.05 0.05 0.05 0.03 0.02 0.02 0.03 0.03 0.03 0.03 0.03 0.05 0.08 0.15 0.25 0.35 0.40 0.43 0.42 0.38 0.35 0.33 0.28 0.22 0.18 0.18 0.18 0.17 0.17 0.17 0.18 0.18 0.17 0.16
0.00 0.00 0.00 0.00 0.00 0.00 0.01 0.01 0.02 0.03 0.04 0.04 0.03 0.02 0.03 0.05 0.06 0.07 0.07 0.05 0.07 0.12 0.18 0.24 0.31 0.35 0.38 0.37 0.34 0.28 0.26 0.24 0.20 0.18 0.18 0.19 0.20 0.18 0.16 0.13 0.12 0.11 0.12
0.00 0.00 0.00 0.00 0.00 0.01 0.01 0.01 0.02 0.03 0.04 0.04 0.04 0.03 0.04 0.06 0.07 0.08 0.07 0.06 0.08 0.11 0.17 0.23 0.27 0.27 0.27 0.28 0.26 0.22 0.20 0.20 0.19 0.18 0.19 0.20 0.19 0.17 0.13 0.11 0.10 0.10 0.09
0.00 0.00 0.00 0.00 0.01 0.01 0.00 0.01 0.01 0.02 0.03 0.04 0.04 0.04 0.07 0.08 0.10 0.11 0.11 0.12 0.13 0.15 0.17 0.19 0.20 0.20 0.18 0.17 0.18 0.17 0.15 0.16 0.16 0.18 0.19 0.18 0.16 0.12 0.09 0.07 0.06 0.05 0.04
0.00 0.01 0.01 0.01 0.00 0.00 0.00 0.00 0.00 0.01 0.01 0.02 0.03 0.04 0.07 0.07 0.09 0.12 0.14 0.14 0.15 0.17 0.18 0.18 0.17 0.16 0.16 0.15 0.14 0.14 0.13 0.14 0.14 0.16 0.17 0.15 0.12 0.08 0.05 0.04 0.03 0.02 0.02
0.00 0.00 0.00 0.00 0.00 0.00 0.00 0.00 0.00 0.00 0.01 0.01 0.02 0.03 0.04 0.05 0.09 0.14 0.17 0.16 0.13 0.12 0.12 0.12 0.14 0.14 0.14 0.12 0.12 0.11 0.10 0.11 0.12 0.13 0.16 0.14 0.10 0.06 0.03 0.02 0.02 0.01 0.01
0.00 0.00 0.00 0.00 0.00 0.00 0.00 0.00 0.00 0.00 0.00 0.00 0.01 0.01 0.03 0.04 0.07 0.13 0.16 0.16 0.15 0.13 0.12 0.12 0.12 0.13 0.13 0.12 0.11 0.08 0.05 0.06 0.07 0.10 0.12 0.10 0.06 0.03 0.02 0.02 0.01 0.01 0.01
0.00 0.00 0.00 0.00 0.00 0.00 0.00 0.00 0.00 0.00 0.00 0.00 0.00 0.01 0.01 0.02 0.03 0.07 0.10 0.13 0.14 0.15 0.14 0.11 0.09 0.09 0.08 0.07 0.05 0.04 0.05 0.05 0.05 0.06 0.10 0.09 0.05 0.03 0.02 0.01 0.01 0.01 0.01
0.00 0.00 0.00 0.00 0.00 0.00 0.00 0.00 0.00 0.00 0.00 0.00 0.00 0.00 0.00 0.01 0.01 0.02 0.04 0.06 0.09 0.11 0.12 0.11 0.09 0.07 0.04 0.02 0.02 0.03 0.04 0.03 0.02 0.02 0.06 0.10 0.07 0.05 0.04 0.03 0.02 0.02 0.02

GEFSGL_prec_meanprecacc_042.txt.gz
Total_Precipitation_Accumulation
0.15 0.13 0.11 0.09 0.07 0.05 0.04 0.03 0.03 0.02 0.01 0.01 0.01 0.00 0.00 0.00 0.00 0.00 0.01 0.01 0.01 0.01 0.02 0.02 0.04 0.04 0.05 0.05 0.05 0.05 0.06 0.09 0.11 0.05 0.02 0.02 0.05 0.07 0.08 0.10 0.10 0.11 0.10
0.09 0.06 0.05 0.05 0.04 0.03 0.03 0.02 0.01 0.01 0.01 0.00 0.00 0.00 0.01 0.01 0.01 0.01 0.01 0.02 0.03 0.03 0.03 0.04 0.04 0.05 0.06 0.06 0.05 0.05 0.05 0.08 0.11 0.10 0.06 0.06 0.08 0.11 0.12 0.13 0.08 0.07 0.10
0.05 0.04 0.03 0.03 0.02 0.02 0.02 0.02 0.01 0.01 0.01 0.01 0.01 0.01 0.01 0.01 0.01 0.01 0.02 0.02 0.02 0.03 0.03 0.03 0.03 0.04 0.04 0.04 0.06 0.06 0.07 0.09 0.14 0.18 0.14 0.12 0.10 0.09 0.13 0.11 0.11 0.16 0.12
0.03 0.03 0.03 0.03 0.03 0.03 0.03 0.03 0.03 0.03 0.03 0.03 0.03 0.02 0.02 0.01 0.01 0.01 0.01 0.01 0.01 0.01 0.02 0.02 0.02 0.03 0.04 0.07 0.08 0.10 0.13 0.16 0.18 0.21 0.17 0.13 0.11 0.09 0.15 0.15 0.13 0.15 0.14
0.05 0.05 0.05 0.05 0.05 0.06 0.06 0.05 0.05 0.05 0.04 0.03 0.02 0.01 0.01 0.00 0.00 0.00 0.00 0.00 0.00 0.01 0.01 0.01 0.02 0.02 0.05 0.09 0.11 0.15 0.19 0.23 0.22 0.23 0.20 0.15 0.11 0.12 0.15 0.17 0.18 0.16 0.12
0.11 0.10 0.10 0.09 0.09 0.09 0.08 0.07 0.05 0.04 0.02 0.01 0.00 0.00 0.00 0.00 0.00 0.00 0.00 0.00 0.00 0.01 0.02 0.03 0.02 0.02 0.04 0.06 0.09 0.14 0.21 0.25 0.25 0.26 0.22 0.19 0.15 0.17 0.22 0.25 0.29 0.26 0.18
0.15 0.14 0.13 0.11 0.10 0.08 0.05 0.03 0.02 0.01 0.01 0.01 0.01 0.00 0.01 0.01 0.00 0.00 0.00 0.00 0.01 0.03 0.04 0.05 0.04 0.03 0.06 0.08 0.08 0.08 0.09 0.12 0.20 0.29 0.31 0.26 0.25 0.28 0.38 0.40 0.36 0.35 0.29
0.15 0.13 0.10 0.08 0.06 0.04 0.02 0.01 0.02 0.02 0.02 0.02 0.01 0.01 0.02 0.01 0.00 0.00 0.00 0.01 0.02 0.03 0.04 0.05 0.07 0.07 0.08 0.08 0.06 0.05 0.06 0.09 0.17 0.26 0.34 0.35 0.37 0.39 0.47 0.50 0.47 0.42 0.32
0.11 0.09 0.06 0.04 0.03 0.02 0.01 0.01 0.01 0.02 0.01 0.01 0.01 0.01 0.03 0.03 0.01 0.00 0.00 0.01 0.01 0.02 0.02 0.03 0.05 0.08 0.08 0.09 0.08 0.08 0.08 0.11 0.18 0.31 0.43 0.49 0.51 0.53 0.54 0.52 0.52 0.47 0.38
0.08 0.06 0.03 0.03 0.02 0.02 0.01 0.01 0.01 0.02 0.02 0.01 0.01 0.02 0.04 0.05 0.02 0.00 0.01 0.01 0.02 0.01 0.01 0.03 0.05 0.08 0.09 0.09 0.07 0.10 0.16 0.17 0.29 0.48 0.59 0.62 0.58 0.57 0.55 0.53 0.51 0.50 0.46
0.05 0.05 0.04 0.02 0.02 0.02 0.02 0.02 0.02 0.03 0.03 0.03 0.03 0.04 0.06 0.04 0.02 0.01 0.01 0.02 0.03 0.03 0.04 0.06 0.09 0.11 0.10 0.08 0.08 0.13 0.21 0.24 0.40 0.65 0.67 0.57 0.47 0.41 0.38 0.37 0.37 0.42 0.48
0.06 0.06 0.05 0.04 0.02 0.01 0.03 0.04 0.03 0.04 0.05 0.05 0.06 0.06 0.06 0.05 0.02 0.01 0.01 0.02 0.03 0.05 0.07 0.09 0.12 0.13 0.11 0.11 0.12 0.19 0.26 0.36 0.51 0.67 0.63 0.53 0.42 0.36 0.31 0.28 0.28 0.32 0.36
0.06 0.06 0.05 0.03 0.03 0.02 0.02 0.03 0.04 0.05 0.05 0.04 0.05 0.06 0.05 0.04 0.04 0.01 0.01 0.02 0.04 0.06 0.11 0.17 0.18 0.16 0.17 0.22 0.27 0.33 0.41 0.49 0.56 0.58 0.51 0.43 0.38 0.35 0.31 0.27 0.25 0.27 0.30
0.07 0.06 0.04 0.04 0.03 0.02 0.02 0.02 0.02 0.04 0.03 0.04 0.05 0.05 0.05 0.05 0.04 0.03 0.03 0.03 0.05 0.07 0.12 0.21 0.30 0.31 0.34 0.41 0.46 0.50 0.50 0.52 0.53 0.47 0.38 0.33 0.32 0.32 0.28 0.24 0.23 0.23 0.26
0.07 0.05 0.04 0.04 0.03 0.03 0.02 0.01 0.01 0.02 0.01 0.02 0.03 0.03 0.05 0.05 0.05 0.06 0.07 0.06 0.07 0.10 0.13 0.17 0.26 0.33 0.39 0.43 0.46 0.48 0.46 0.43 0.42 0.37 0.31 0.28 0.29 0.29 0.27 0.23 0.21 0.19 0.21
0.05 0.03 0.03 0.02 0.02 0.02 0.03 0.04 0.01 0.00 0.00 0.01 0.02 0.03 0.03 0.04 0.04 0.04 0.06 0.08 0.10 0.13 0.14 0.21 0.30 0.37 0.44 0.46 0.46 0.44 0.41 0.38 0.35 0.32 0.28 0.24 0.24 0.26 0.26 0.23 0.21 0.21 0.22
0.02 0.02 0.01 0.01 0.01 0.02 0.03 0.06 0.08 0.06 0.02 0.01 0.01 0.02 0.02 0.03 0.03 0.03 0.04 0.06 0.08 0.11 0.14 0.24 0.34 0.42 0.47 0.47 0.44 0.41 0.40 0.37 0.31 0.26 0.24 0.22 0.20 0.21 0.23 0.23 0.22 0.22 0.21
0.01 0.01 0.00 0.01 0.01 0.01 0.02 0.04 0.06 0.11 0.10 0.07 0.04 0.02 0.02 0.03 0.04 0.03 0.04 0.04 0.07 0.11 0.18 0.28 0.37 0.42 0.45 0.46 0.42 0.40 0.38 0.33 0.26 0.22 0.22 0.22 0.21 0.19 0.19 0.20 0.19 0.18 0.17
0.01 0.02 0.01 0.01 0.01 0.01 0.01 0.02 0.03 0.06 0.08 0.08 0.06 0.04 0.04 0.06 0.07 0.08 0.09 0.08 0.10 0.14 0.20 0.27 0.34 0.38 0.41 0.41 0.38 0.33 0.31 0.28 0.24 0.21 0.21 0.22 0.22 0.20 0.17 0.14 0.12 0.11 0.13
0.01 0.01 0.00 0.01 0.01 0.01 0.01 0.02 0.03 0.05 0.06 0.06 0.05 0.04 0.06 0.09 0.10 0.11 0.10 0.09 0.10 0.13 0.19 0.24 0.29 0.30 0.31 0.31 0.29 0.25 0.23 0.24 0.22 0.21 0.21 0.22 0.21 0.18 0.14 0.12 0.10 0.10 0.10
0.01 0.01 0.01 0.01 0.01 0.01 0.01 0.01 0.02 0.04 0.05 0.05 0.05 0.05 0.09 0.11 0.14 0.15 0.15 0.14 0.14 0.16 0.18 0.20 0.22 0.23 0.21 0.19 0.20 0.19 0.17 0.18 0.19 0.22 0.21 0.20 0.17 0.13 0.10 0.07 0.06 0.05 0.04
0.01 0.01 0.01 0.01 0.01 0.00 0.00 0.00 0.01 0.02 0.03 0.03 0.04 0.05 0.09 0.10 0.12 0.15 0.16 0.17 0.17 0.18 0.19 0.20 0.19 0.18 0.18 0.17 0.17 0.16 0.14 0.14 0.16 0.20 0.20 0.17 0.14 0.09 0.06 0.05 0.04 0.03 0.02
0.00 0.00 0.00 0.00 0.00 0.00 0.00 0.00 0.00 0.01 0.01 0.02 0.03 0.04 0.05 0.08 0.11 0.15 0.18 0.17 0.15 0.14 0.13 0.14 0.16 0.16 0.15 0.14 0.14 0.12 0.10 0.11 0.12 0.16 0.21 0.19 0.12 0.07 0.05 0.04 0.03 0.02 0.01
0.00 0.00 0.00 0.00 0.00 0.00 0.00 0.00 0.00 0.00 0.00 0.01 0.02 0.03 0.04 0.06 0.09 0.14 0.17 0.17 0.16 0.15 0.13 0.13 0.14 0.14 0.14 0.13 0.11 0.08 0.05 0.06 0.07 0.11 0.16 0.15 0.09 0.05 0.05 0.05 0.04 0.03 0.03
0.00 0.00 0.00 0.00 0.00 0.00 0.00 0.00 0.00 0.00 0.00 0.00 0.01 0.02 0.03 0.04 0.05 0.07 0.11 0.14 0.15 0.17 0.15 0.12 0.10 0.10 0.09 0.07 0.05 0.04 0.05 0.05 0.05 0.06 0.11 0.12 0.07 0.04 0.04 0.04 0.04 0.04 0.04
0.00 0.00 0.00 0.00 0.00 0.00 0.00 0.00 0.00 0.00 0.00 0.00 0.00 0.00 0.01 0.02 0.02 0.03 0.05 0.07 0.10 0.12 0.13 0.12 0.10 0.07 0.05 0.02 0.02 0.03 0.04 0.03 0.02 0.03 0.07 0.11 0.08 0.05 0.05 0.05 0.03 0.04 0.05

GEFSGL_prec_meanprecacc_048.txt.gz
Total_Precipitation_Accumulation
0.22 0.20 0.19 0.15 0.12 0.10 0.08 0.06 0.04 0.03 0.02 0.01 0.01 0.00 0.00 0.00 0.00 0.00 0.01 0.01 0.01 0.01 0.02 0.02 0.04 0.04 0.05 0.05 0.05 0.05 0.06 0.09 0.11 0.05 0.02 0.02 0.05 0.07 0.08 0.10 0.10 0.11 0.11
0.14 0.11 0.09 0.07 0.06 0.06 0.05 0.03 0.02 0.01 0.01 0.01 0.00 0.00 0.01 0.01 0.01 0.01 0.01 0.02 0.03 0.03 0.03 0.04 0.04 0.05 0.06 0.06 0.05 0.05 0.05 0.08 0.11 0.10 0.06 0.06 0.08 0.11 0.12 0.13 0.08 0.07 0.10
0.09 0.07 0.07 0.05 0.04 0.04 0.03 0.02 0.01 0.01 0.01 0.02 0.02 0.02 0.01 0.01 0.01 0.02 0.02 0.02 0.02 0.03 0.03 0.03 0.03 0.04 0.04 0.04 0.06 0.06 0.07 0.09 0.14 0.18 0.14 0.12 0.10 0.09 0.13 0.11 0.11 0.16 0.12
0.07 0.06 0.05 0.05 0.04 0.04 0.04 0.03 0.03 0.03 0.03 0.03 0.03 0.02 0.02 0.01 0.01 0.01 0.01 0.01 0.01 0.01 0.02 0.02 0.02 0.03 0.04 0.07 0.08 0.10 0.13 0.16 0.18 0.21 0.17 0.13 0.11 0.09 0.15 0.15 0.14 0.15 0.14
0.09 0.08 0.08 0.08 0.07 0.08 0.07 0.06 0.06 0.05 0.04 0.03 0.02 0.01 0.01 0.00 0.00 0.00 0.00 0.00 0.00 0.01 0.01 0.02 0.02 0.03 0.05 0.09 0.11 0.15 0.19 0.23 0.22 0.23 0.20 0.15 0.11 0.12 0.15 0.17 0.19 0.16 0.12
0.19 0.17 0.16 0.14 0.13 0.12 0.10 0.08 0.06 0.04 0.02 0.01 0.00 0.00 0.00 0.00 0.00 0.00 0.00 0.00 0.00 0.01 0.02 0.03 0.02 0.02 0.04 0.06 0.10 0.14 0.21 0.25 0.26 0.26 0.23 0.20 0.15 0.18 0.23 0.26 0.30 0.27 0.19
0.24 0.21 0.18 0.15 0.12 0.09 0.06 0.04 0.02 0.02 0.01 0.01 0.01 0.00 0.01 0.01 0.00 0.00 0.00 0.00 0.01 0.03 0.05 0.05 0.04 0.03 0.06 0.08 0.08 0.09 0.09 0.12 0.21 0.31 0.32 0.27 0.26 0.29 0.40 0.41 0.37 0.36 0.30
0.18 0.15 0.12 0.09 0.06 0.04 0.02 0.01 0.02 0.02 0.02 0.02 0.02 0.01 0.02 0.01 0.00 0.00 0.00 0.01 0.02 0.03 0.04 0.05 0.07 0.07 0.08 0.08 0.06 0.05 0.06 0.09 0.17 0.27 0.35 0.36 0.37 0.40 0.48 0.52 0.48 0.43 0.32
0.12 0.09 0.06 0.04 0.03 0.02 0.02 0.02 0.02 0.03 0.03 0.02 0.01 0.01 0.03 0.03 0.01 0.00 0.00 0.01 0.01 0.02 0.02 0.03 0.05 0.08 0.08 0.09 0.08 0.08 0.08 0.11 0.18 0.32 0.43 0.49 0.51 0.53 0.54 0.54 0.53 0.49 0.40
0.09 0.06 0.04 0.03 0.02 0.02 0.02 0.02 0.02 0.03 0.03 0.03 0.02 0.02 0.04 0.06 0.02 0.00 0.01 0.01 0.02 0.01 0.01 0.03 0.05 0.08 0.09 0.09 0.07 0.10 0.16 0.18 0.29 0.48 0.59 0.63 0.58 0.57 0.56 0.54 0.53 0.51 0.49
0.06 0.05 0.04 0.03 0.02 0.02 0.03 0.03 0.03 0.03 0.04 0.04 0.04 0.05 0.06 0.05 0.02 0.01 0.01 0.02 0.03 0.03 0.04 0.06 0.09 0.11 0.10 0.08 0.08 0.13 0.21 0.25 0.41 0.66 0.68 0.58 0.48 0.42 0.39 0.38 0.38 0.43 0.50
0.07 0.07 0.05 0.04 0.02 0.02 0.04 0.05 0.04 0.05 0.05 0.06 0.06 0.07 0.07 0.05 0.02 0.01 0.01 0.02 0.03 0.05 0.07 0.09 0.12 0.13 0.11 0.11 0.12 0.19 0.26 0.37 0.52 0.67 0.64 0.53 0.43 0.36 0.32 0.28 0.29 0.32 0.37
0.06 0.07 0.05 0.03 0.03 0.02 0.03 0.04 0.05 0.06 0.06 0.05 0.05 0.06 0.06 0.05 0.04 0.01 0.01 0.02 0.04 0.06 0.11 0.17 0.18 0.16 0.18 0.23 0.28 0.34 0.41 0.50 0.57 0.59 0.52 0.44 0.39 0.36 0.31 0.27 0.25 0.28 0.30
0.09 0.07 0.05 0.05 0.04 0.02 0.02 0.02 0.03 0.04 0.04 0.04 0.05 0.05 0.05 0.05 0.04 0.03 0.03 0.03 0.05 0.07 0.12 0.22 0.30 0.32 0.35 0.42 0.48 0.51 0.51 0.54 0.55 0.48 0.39 0.34 0.32 0.32 0.28 0.24 0.23 0.23 0.26
0.08 0.05 0.05 0.05 0.04 0.03 0.03 0.02 0.02 0.02 0.01 0.02 0.03 0.03 0.05 0.05 0.05 0.06 0.07 0.06 0.07 0.11 0.13 0.18 0.27 0.34 0.40 0.45 0.47 0.49 0.47 0.44 0.43 0.38 0.32 0.28 0.29 0.30 0.27 0.23 0.21 0.19 0.22
0.05 0.04 0.03 0.03 0.03 0.03 0.04 0.05 0.02 0.00 0.01 0.01 0.02 0.03 0.03 0.05 0.04 0.04 0.06 0.08 0.10 0.13 0.15 0.22 0.31 0.39 0.45 0.48 0.48 0.46 0.42 0.39 0.36 0.33 0.29 0.24 0.24 0.27 0.26 0.23 0.21 0.21 0.22
0.02 0.02 0.01 0.01 0.02 0.02 0.04 0.07 0.08 0.06 0.02 0.01 0.01 0.02 0.03 0.03 0.04 0.04 0.04 0.06 0.08 0.12 0.16 0.26 0.36 0.44 0.49 0.50 0.46 0.43 0.42 0.38 0.32 0.27 0.25 0.22 0.20 0.21 0.23 0.23 0.22 0.22 0.21
0.01 0.01 0.00 0.01 0.01 0.01 0.03 0.05 0.07 0.12 0.11 0.07 0.04 0.02 0.03 0.04 0.04 0.04 0.05 0.05 0.08 0.12 0.20 0.30 0.40 0.45 0.48 0.49 0.44 0.42 0.40 0.34 0.27 0.23 0.22 0.23 0.21 0.19 0.19 0.20 0.19 0.18 0.18
0.01 0.02 0.02 0.01 0.01 0.01 0.02 0.03 0.04 0.07 0.09 0.08 0.06 0.04 0.05 0.07 0.09 0.09 0.10 0.09 0.11 0.16 0.23 0.30 0.36 0.41 0.44 0.43 0.40 0.35 0.32 0.29 0.24 0.22 0.21 0.23 0.23 0.20 0.17 0.15 0.12 0.12 0.13
0.01 0.01 0.00 0.01 0.01 0.01 0.01 0.02 0.03 0.05 0.06 0.07 0.05 0.04 0.06 0.10 0.12 0.13 0.11 0.10 0.11 0.15 0.20 0.26 0.30 0.32 0.33 0.32 0.29 0.26 0.24 0.24 0.22 0.21 0.21 0.22 0.22 0.19 0.15 0.12 0.11 0.10 0.10
0.01 0.01 0.01 0.01 0.01 0.01 0.01 0.01 0.02 0.04 0.05 0.06 0.05 0.05 0.10 0.12 0.15 0.16 0.15 0.15 0.15 0.17 0.19 0.21 0.23 0.24 0.22 0.20 0.20 0.19 0.17 0.18 0.19 0.22 0.22 0.21 0.18 0.14 0.10 0.08 0.07 0.05 0.05
0.01 0.01 0.01 0.01 0.01 0.00 0.00 0.00 0.01 0.02 0.03 0.04 0.04 0.05 0.10 0.11 0.13 0.15 0.17 0.17 0.18 0.19 0.20 0.20 0.20 0.19 0.18 0.17 0.17 0.16 0.14 0.15 0.16 0.20 0.21 0.19 0.15 0.10 0.07 0.06 0.04 0.03 0.02
0.00 0.00 0.00 0.00 0.00 0.00 0.00 0.00 0.00 0.01 0.01 0.02 0.03 0.04 0.06 0.09 0.12 0.15 0.18 0.17 0.15 0.15 0.14 0.15 0.16 0.16 0.15 0.14 0.14 0.12 0.10 0.11 0.13 0.16 0.22 0.20 0.14 0.08 0.06 0.05 0.04 0.03 0.02
0.00 0.00 0.00 0.00 0.00 0.00 0.00 0.00 0.00 0.00 0.00 0.01 0.02 0.03 0.05 0.07 0.09 0.14 0.17 0.17 0.16 0.15 0.14 0.13 0.14 0.14 0.14 0.13 0.11 0.08 0.05 0.06 0.08 0.11 0.17 0.16 0.10 0.06 0.06 0.06 0.05 0.04 0.03
0.00 0.00 0.00 0.00 0.00 0.00 0.00 0.00 0.00 0.00 0.00 0.00 0.01 0.02 0.03 0.04 0.05 0.08 0.12 0.14 0.15 0.17 0.16 0.12 0.10 0.10 0.09 0.07 0.05 0.04 0.05 0.05 0.05 0.06 0.11 0.12 0.07 0.05 0.05 0.04 0.04 0.04 0.04
0.00 0.00 0.00 0.00 0.00 0.00 0.00 0.00 0.00 0.00 0.00 0.00 0.00 0.01 0.01 0.02 0.02 0.03 0.05 0.07 0.10 0.13 0.13 0.12 0.10 0.07 0.05 0.02 0.02 0.03 0.04 0.03 0.02 0.03 0.07 0.11 0.08 0.05 0.06 0.05 0.03 0.04 0.05

GEFSGL_prec_meanprecacc_054.txt.gz
Total_Precipitation_Accumulation
0.36 0.35 0.32 0.29 0.25 0.22 0.18 0.14 0.11 0.08 0.06 0.04 0.02 0.02 0.01 0.01 0.01 0.01 0.01 0.01 0.01 0.02 0.02 0.03 0.04 0.04 0.05 0.05 0.05 0.05 0.06 0.09 0.11 0.05 0.02 0.02 0.05 0.07 0.08 0.10 0.10 0.11 0.11
0.22 0.19 0.18 0.15 0.13 0.12 0.10 0.08 0.05 0.04 0.03 0.02 0.02 0.01 0.01 0.01 0.01 0.01 0.01 0.02 0.03 0.03 0.03 0.04 0.04 0.05 0.06 0.06 0.05 0.05 0.05 0.08 0.11 0.10 0.06 0.06 0.08 0.11 0.12 0.13 0.08 0.07 0.10
0.16 0.14 0.13 0.11 0.09 0.08 0.07 0.06 0.05 0.05 0.04 0.04 0.03 0.03 0.02 0.02 0.02 0.02 0.02 0.03 0.03 0.03 0.03 0.04 0.03 0.04 0.04 0.04 0.06 0.06 0.07 0.09 0.14 0.18 0.14 0.12 0.10 0.09 0.13 0.11 0.11 0.16 0.12
0.12 0.11 0.10 0.09 0.08 0.07 0.06 0.06 0.05 0.05 0.05 0.05 0.04 0.04 0.03 0.02 0.01 0.01 0.01 0.01 0.01 0.01 0.02 0.02 0.02 0.03 0.04 0.07 0.08 0.10 0.13 0.16 0.18 0.21 0.17 0.13 0.11 0.09 0.15 0.15 0.14 0.15 0.14
0.14 0.14 0.13 0.13 0.12 0.12 0.10 0.09 0.09 0.08 0.06 0.04 0.03 0.02 0.01 0.01 0.00 0.00 0.00 0.00 0.00 0.01 0.01 0.02 0.02 0.03 0.05 0.09 0.12 0.15 0.19 0.23 0.22 0.23 0.20 0.15 0.11 0.12 0.15 0.17 0.19 0.16 0.12
0.25 0.23 0.21 0.19 0.16 0.14 0.12 0.09 0.07 0.05 0.03 0.01 0.01 0.00 0.00 0.00 0.00 0.00 0.00 0.00 0.00 0.01 0.02 0.03 0.02 0.02 0.04 0.06 0.10 0.14 0.21 0.25 0.26 0.26 0.23 0.20 0.15 0.18 0.23 0.27 0.30 0.28 0.20
0.28 0.24 0.20 0.16 0.13 0.10 0.06 0.04 0.03 0.02 0.02 0.01 0.01 0.01 0.01 0.01 0.00 0.00 0.00 0.00 0.01 0.03 0.05 0.05 0.04 0.03 0.06 0.08 0.08 0.09 0.09 0.12 0.21 0.31 0.32 0.27 0.27 0.29 0.40 0.42 0.38 0.37 0.31
0.19 0.16 0.12 0.09 0.06 0.04 0.02 0.02 0.02 0.02 0.03 0.03 0.02 0.01 0.02 0.01 0.00 0.00 0.00 0.01 0.02 0.03 0.04 0.05 0.07 0.07 0.08 0.08 0.06 0.05 0.06 0.09 0.17 0.27 0.35 0.37 0.38 0.41 0.49 0.53 0.49 0.44 0.33
0.12 0.09 0.06 0.04 0.03 0.03 0.02 0.02 0.02 0.03 0.03 0.03 0.03 0.03 0.03 0.04 0.01 0.00 0.00 0.01 0.01 0.02 0.02 0.03 0.05 0.08 0.08 0.09 0.08 0.08 0.08 0.11 0.18 0.32 0.43 0.49 0.52 0.54 0.55 0.54 0.54 0.50 0.41
0.09 0.06 0.04 0.03 0.02 0.02 0.02 0.02 0.02 0.03 0.04 0.04 0.04 0.04 0.05 0.06 0.02 0.00 0.01 0.01 0.02 0.01 0.01 0.03 0.05 0.08 0.10 0.09 0.07 0.11 0.16 0.18 0.29 0.48 0.59 0.63 0.59 0.58 0.57 0.55 0.53 0.52 0.50
0.06 0.06 0.05 0.03 0.02 0.02 0.03 0.03 0.03 0.04 0.04 0.04 0.05 0.06 0.07 0.05 0.02 0.01 0.01 0.02 0.03 0.03 0.04 0.06 0.09 0.11 0.10 0.09 0.09 0.13 0.22 0.26 0.42 0.66 0.68 0.58 0.48 0.42 0.39 0.38 0.38 0.43 0.50
0.07 0.07 0.05 0.04 0.02 0.02 0.04 0.05 0.04 0.05 0.05 0.06 0.06 0.07 0.07 0.05 0.02 0.01 0.01 0.02 0.03 0.05 0.08 0.10 0.12 0.13 0.12 0.12 0.13 0.20 0.28 0.39 0.53 0.69 0.64 0.54 0.43 0.36 0.32 0.28 0.29 0.32 0.37
0.07 0.07 0.05 0.03 0.03 0.02 0.03 0.04 0.05 0.06 0.06 0.05 0.05 0.06 0.06 0.05 0.04 0.01 0.01 0.02 0.04 0.06 0.12 0.17 0.19 0.17 0.18 0.23 0.28 0.35 0.43 0.51 0.58 0.60 0.52 0.44 0.39 0.36 0.31 0.27 0.25 0.28 0.30
0.09 0.07 0.05 0.05 0.04 0.02 0.02 0.02 0.03 0.04 0.04 0.04 0.05 0.05 0.05 0.05 0.04 0.03 0.03 0.03 0.05 0.08 0.13 0.23 0.32 0.33 0.36 0.43 0.49 0.52 0.52 0.54 0.55 0.48 0.39 0.34 0.32 0.32 0.28 0.24 0.23 0.23 0.26
0.08 0.05 0.05 0.05 0.04 0.03 0.03 0.02 0.02 0.02 0.01 0.02 0.03 0.04 0.05 0.05 0.05 0.06 0.07 0.06 0.07 0.11 0.15 0.20 0.28 0.36 0.42 0.46 0.49 0.50 0.48 0.44 0.43 0.38 0.32 0.28 0.29 0.30 0.27 0.23 0.21 0.19 0.22
0.05 0.04 0.03 0.03 0.03 0.03 0.04 0.05 0.02 0.00 0.01 0.01 0.02 0.03 0.03 0.05 0.05 0.05 0.07 0.08 0.11 0.15 0.17 0.24 0.33 0.41 0.48 0.50 0.49 0.46 0.42 0.39 0.36 0.33 0.29 0.24 0.25 0.27 0.26 0.23 0.21 0.21 0.23
0.02 0.02 0.01 0.01 0.02 0.02 0.04 0.07 0.09 0.06 0.02 0.01 0.01 0.02 0.03 0.04 0.04 0.04 0.05 0.07 0.09 0.14 0.18 0.29 0.39 0.45 0.51 0.51 0.47 0.43 0.42 0.38 0.32 0.27 0.25 0.22 0.20 0.21 0.23 0.23 0.22 0.22 0.22
0.01 0.01 0.00 0.01 0.01 0.02 0.03 0.05 0.07 0.12 0.11 0.08 0.04 0.02 0.03 0.04 0.05 0.05 0.06 0.06 0.10 0.16 0.25 0.35 0.42 0.46 0.49 0.50 0.45 0.42 0.40 0.34 0.27 0.23 0.22 0.23 0.21 0.20 0.20 0.20 0.19 0.18 0.18
0.01 0.02 0.02 0.01 0.01 0.01 0.02 0.03 0.04 0.07 0.09 0.08 0.06 0.04 0.06 0.08 0.10 0.10 0.11 0.11 0.15 0.20 0.27 0.32 0.38 0.42 0.44 0.43 0.40 0.35 0.32 0.29 0.25 0.22 0.22 0.23 0.23 0.21 0.18 0.15 0.13 0.12 0.13
0.01 0.01 0.00 0.01 0.01 0.01 0.01 0.02 0.03 0.05 0.06 0.07 0.05 0.04 0.07 0.11 0.13 0.14 0.12 0.12 0.13 0.16 0.21 0.27 0.31 0.32 0.33 0.33 0.30 0.26 0.24 0.24 0.22 0.21 0.22 0.23 0.22 0.19 0.15 0.12 0.11 0.10 0.10
0.01 0.01 0.01 0.01 0.01 0.01 0.01 0.01 0.02 0.04 0.05 0.06 0.05 0.05 0.10 0.13 0.16 0.17 0.17 0.16 0.16 0.18 0.20 0.22 0.23 0.24 0.22 0.20 0.20 0.19 0.18 0.18 0.19 0.22 0.22 0.21 0.18 0.14 0.10 0.08 0.07 0.06 0.05
0.01 0.01 0.01 0.01 0.01 0.00 0.00 0.00 0.01 0.02 0.03 0.04 0.04 0.05 0.11 0.12 0.14 0.16 0.17 0.18 0.18 0.19 0.20 0.20 0.20 0.19 0.18 0.17 0.17 0.16 0.14 0.15 0.16 0.20 0.21 0.19 0.15 0.10 0.07 0.06 0.04 0.03 0.02
0.00 0.00 0.00 0.00 0.00 0.00 0.00 0.00 0.00 0.01 0.01 0.02 0.03 0.04 0.06 0.09 0.12 0.16 0.18 0.17 0.15 0.15 0.14 0.15 0.16 0.16 0.15 0.14 0.14 0.12 0.10 0.11 0.13 0.16 0.22 0.20 0.14 0.08 0.06 0.05 0.04 0.03 0.02
0.00 0.00 0.00 0.00 0.00 0.00 0.00 0.00 0.00 0.00 0.00 0.01 0.02 0.03 0.05 0.07 0.10 0.14 0.17 0.17 0.16 0.15 0.14 0.13 0.14 0.14 0.14 0.13 0.11 0.08 0.05 0.06 0.08 0.11 0.17 0.16 0.10 0.06 0.06 0.06 0.05 0.04 0.03
0.00 0.00 0.00 0.00 0.00 0.00 0.00 0.00 0.00 0.00 0.00 0.00 0.01 0.02 0.03 0.04 0.05 0.08 0.12 0.14 0.15 0.17 0.16 0.12 0.10 0.10 0.09 0.07 0.05 0.04 0.05 0.05 0.05 0.06 0.11 0.12 0.07 0.05 0.05 0.04 0.04 0.04 0.04
0.00 0.00 0.00 0.00 0.00 0.00 0.00 0.00 0.00 0.00 0.00 0.00 0.00 0.01 0.01 0.02 0.02 0.03 0.05 0.07 0.10 0.13 0.13 0.12 0.10 0.07 0.05 0.02 0.02 0.03 0.04 0.03 0.02 0.03 0.07 0.11 0.08 0.05 0.06 0.05 0.03 0.04 0.05